"Pseudo-MPEC" for P11JB7S

Created 2023 Sep 19 16:22:20 UT using Find_Orb

Click here for an explanation of pseudo-MPECs

 
 Astrometry: 
     P11JB7S  C2023 09 12ub7u3^fB'i8'%rB6egPZi1MV-%uAstrometry-(O]Eg22]qyYRBKF51
     P11JB7S  C2023 09 124GC07bwBB@SIv;(q1!9Vhh%QA^)c/qd,'IXDkxQotFwlI.m5BansF51
     P11JB7S  C2023 09 12\RW;N!V@JhpgJ?redacted;ap-s%6wiX^]Rui/u^]9`m4d\,ZIVSF51
     P11JB7S  C2023 09 12dMprFOL\LoeSG`CV5'mNA;,wI@%td,D6-s=Cy38df_$/o9k=B2X^F51
     P11JB7S* C2023 09 15rU-9/ggMM1dZ^'$]npHZ0D%@5Bb!Ft/.gOTF?0]Wk;:_1suC=!=,F51
     P11JB7S  C2023 09 15w%.R%(;3I4WZ?vDVS5qGN\dGXa?3$K0]Yb;XPdFlA1qJg$98LgujF51
     P11JB7S  C2023 09 15h-+-tcY^Fl!..38LY+H_sc^xv$CKH12-s,p,kxl$`Y=385Q.nV`pF51
     P11JB7S  C2023 09 15-m2@XEMQQw7vm6clickBLv!icmkxxcaltG'@c9`B8hMjeehere@YF51
     P11JB7S  C2023 09 15!c+QdN;2sm06TW0VMkv7_\3w$`Aj%bfor#ZKb2i6'Uct@yOwd+$/F51
     P11JB7S  C2023 09 15[;nqNFvigfn)CO.+aRAh-^M7k$!P)e1D3)MY%!E0^explanationF51
     P11JB7S KC2023 09 18.29609800 27 27.637-21 07 14.38   ~9I8M 22.10GVNEOCPI52
     P11JB7S KC2023 09 18.30460200 27 26.291-21 06 57.42   ~9I8M 21.76GVNEOCPI52
     P11JB7S KC2023 09 18.31311700 27 25.114-21 06 41.00   ~9I8M 21.49GVNEOCPI52
     P11JB7S KC2023 09 18.32418200 27 23.371-21 06 19.08   ~9I8M 21.76GVNEOCPI52

Station data:
(F51) Pan-STARRS 1, Haleakala  (N20.707234 W156.255910)  US/Hawaii.
   Observers J. Bulger, T. Lowe, A. Schultz, M. Willman. Measurers K.
   Chambers, S. Chastel, T. de Boer, L. Denneau, J. Fairlamb, H. Flewelling,
   M. Huber, C.-C. Lin, E. Magnier, Y. Ramanjooloo, R. Wainscoat, R. Weryk.
   1.8-m Ritchey-Chrétien + CCD.
(I52) Steward Observatory, Mt. Lemmon Station  (N32.442544 W110.788920)
   US/Arizona.  Observers T. A. Pruyne, B. M. Africano, E. J. Christensen, G.
   A. Farneth, D. C. Fuls, A. R. Gibbs, A. D. Grauer, H. Gröller, J. A.
   Johnson, R. A. Kowalski, S. M. Larson, G. J. Leonard, D. Rankin, R. L.
   Seaman, F. C. Shelly, K. W. Wierzchoś. 1.0-m prime focus + CCD.

Orbital elements:  P11JB7S
   Perihelion 2023 Aug 23.79414 +/- 0.949 TT = 19:03:33 (JD 2460180.29414)
Epoch 2023 Sep 18.0 TT = JDT 2460205.5   Earth MOID: 0.6704      AutoNEOCP
M   4.38338894 +/- 0.39             (J2000 ecliptic)
n   0.17390353 +/- 0.00898          Peri.  328.86853 +/- 0.7
a   3.17880421 +/- 0.109            Node     9.82930 +/- 0.14
e   0.4875194 +/- 0.014             Incl.   32.58628 +/- 0.54
P   5.67                   H 21.01  G  0.15   U  9.6
q 1.62907530 +/- 0.0115    Q 4.72853311 +/- 0.207
From 14 observations 2023 Sept. 12-18; mean residual 0".28
Residuals in arcseconds: 
230912 F51  .17-  .15+    230915 F51  .02+  .01-    230918 I52  .27+  .39-    
230912 F51  .10+  .07+    230915 F51  .13-  .09-    230918 I52  .62-  .14+    
230912 F51  .13+  .03-    230915 F51  .12-  .23+    230918 I52  .89+  .10+    
230912 F51  .00   .12-    230915 F51  .06+  .06+    230918 I52  .13-  .61+    
230915 F51  .21-  .16-    230915 F51  .22+  .20-    

Ephemerides (geocentric):
Date (UTC) HH   RA             Dec           delta  r     elong  mag " sig PA
---- --------  ------------   ------------  ------ ------ -----  --- --------
2023 09 19 16  00 24 07.241   -20 22 17.23  .67088 1.6485 159.0 22.0 .581  41
2023 09 19 17  00 24 01.155   -20 20 54.59  .67087 1.6486 159.0 22.0 .592  42
2023 09 19 18  00 23 55.069   -20 19 31.90  .67085 1.6486 159.0 22.0 .604  42
2023 09 19 19  00 23 48.983   -20 18 09.16  .67084 1.6487 159.1 22.0 .615  43
2023 09 19 20  00 23 42.897   -20 16 46.36  .67083 1.6487 159.1 22.0 .627  44
2023 09 19 21  00 23 36.812   -20 15 23.50  .67082 1.6488 159.1 22.0 .639  44
2023 09 19 22  00 23 30.727   -20 14 00.59  .67081 1.6489 159.2 22.0 .651  45
2023 09 19 23  00 23 24.642   -20 12 37.63  .67080 1.6489 159.2 22.0 .664  46
2023 09 20 00  00 23 18.558   -20 11 14.61  .67079 1.6490 159.2 22.0 .677  47
2023 09 20 01  00 23 12.474   -20 09 51.54  .67078 1.6490 159.3 22.0 .690  47
2023 09 20 02  00 23 06.390   -20 08 28.41  .67077 1.6491 159.3 22.0 .703  48
2023 09 20 03  00 23 00.306   -20 07 05.23  .67076 1.6492 159.3 22.0 .717  49
2023 09 20 04  00 22 54.223   -20 05 41.99  .67075 1.6492 159.4 22.0 .731  49
2023 09 20 05  00 22 48.140   -20 04 18.70  .67075 1.6493 159.4 22.0 .745  50
2023 09 20 06  00 22 42.058   -20 02 55.36  .67074 1.6493 159.4 22.0 .760  51
2023 09 20 07  00 22 35.976   -20 01 31.96  .67073 1.6494 159.5 22.0 .774  51
2023 09 20 08  00 22 29.895   -20 00 08.51  .67073 1.6495 159.5 22.0 .789  52
2023 09 20 09  00 22 23.814   -19 58 45.01  .67072 1.6495 159.5 22.0 .805  53
2023 09 20 10  00 22 17.733   -19 57 21.45  .67072 1.6496 159.5 22.0 .820  53
2023 09 20 11  00 22 11.653   -19 55 57.84  .67071 1.6497 159.6 22.0 .836  54
2023 09 20 12  00 22 05.574   -19 54 34.18  .67071 1.6497 159.6 22.0 .852  54
2023 09 20 13  00 21 59.495   -19 53 10.46  .67071 1.6498 159.6 22.0 .869  55
2023 09 20 14  00 21 53.416   -19 51 46.69  .67070 1.6498 159.7 22.0 .886  55
2023 09 20 15  00 21 47.338   -19 50 22.87  .67070 1.6499 159.7 22.0 .903  56
2023 09 20 16  00 21 41.261   -19 48 59.00  .67070 1.6500 159.7 22.0 .920  57
2023 09 20 17  00 21 35.184   -19 47 35.08  .67070 1.6500 159.8 22.0 .938  57
2023 09 20 18  00 21 29.108   -19 46 11.10  .67070 1.6501 159.8 22.0 .956  58
2023 09 20 19  00 21 23.032   -19 44 47.07  .67070 1.6501 159.8 22.0 .974  58
2023 09 20 20  00 21 16.958   -19 43 22.99  .67070 1.6502 159.8 22.0 0.99  59
2023 09 20 21  00 21 10.883   -19 41 58.86  .67070 1.6503 159.9 22.0 1.01  59
2023 09 20 22  00 21 04.810   -19 40 34.68  .67070 1.6503 159.9 22.0 1.03  60
2023 09 20 23  00 20 58.737   -19 39 10.45  .67071 1.6504 159.9 22.0 1.05  60
2023 09 21 00  00 20 52.665   -19 37 46.16  .67071 1.6505 160.0 22.0 1.07  61
2023 09 21 01  00 20 46.594   -19 36 21.83  .67071 1.6505 160.0 22.0 1.09  61
2023 09 21 02  00 20 40.523   -19 34 57.44  .67071 1.6506 160.0 22.0 1.11  62
2023 09 21 03  00 20 34.453   -19 33 33.01  .67072 1.6506 160.1 22.0 1.13  62
2023 09 21 04  00 20 28.384   -19 32 08.52  .67072 1.6507 160.1 22.0 1.15  63
2023 09 21 05  00 20 22.316   -19 30 43.98  .67073 1.6508 160.1 22.0 1.17  63
2023 09 21 06  00 20 16.249   -19 29 19.40  .67074 1.6508 160.1 22.0 1.20  64
2023 09 21 07  00 20 10.182   -19 27 54.76  .67074 1.6509 160.2 21.9 1.22  64
2023 09 21 08  00 20 04.117   -19 26 30.07  .67075 1.6510 160.2 21.9 1.24  65
2023 09 21 09  00 19 58.052   -19 25 05.34  .67076 1.6510 160.2 21.9 1.26  65
2023 09 21 10  00 19 51.988   -19 23 40.55  .67076 1.6511 160.3 21.9 1.29  65
2023 09 21 11  00 19 45.925   -19 22 15.71  .67077 1.6511 160.3 21.9 1.31  66
2023 09 21 12  00 19 39.863   -19 20 50.83  .67078 1.6512 160.3 21.9 1.33  66
2023 09 21 13  00 19 33.802   -19 19 25.90  .67079 1.6513 160.3 21.9 1.36  67
2023 09 21 14  00 19 27.742   -19 18 00.92  .67080 1.6513 160.4 21.9 1.38  67
2023 09 21 15  00 19 21.683   -19 16 35.88  .67081 1.6514 160.4 21.9 1.41  68